Presque Isle, ME

10:37 AM EDT on August 24, 2016 (GMT -0400)
Northern Maine Regional At Presque Isle

Weather History for KPQI - January, 2014

Change the Weather History Date:

Tuesday, January 7, 2014

  Actual Average Record
Temperature  
Mean Temperature 14 °F -  
Max Temperature 24 °F 20 °F 49 °F (1929)
Min Temperature 3 °F 1 °F -25 °F (1945)
Degree Days  
Heating Degree Days 52    
Moisture  
Dew Point -4 °F    
Average Humidity 56    
Maximum Humidity 69    
Minimum Humidity 43    
Precipitation  
Precipitation 0.01 in - - ()
Sea Level Pressure  
Sea Level Pressure 29.46 in    
Wind  
Wind Speed 16 mph (West)    
Max Wind Speed 25 mph    
Max Gust Speed 34 mph    
Visibility 10 miles    
Events      
Averages and records for this station are not official NWS values.
T = Trace of Precipitation, MM = Missing Value Source: NWS Daily Summary

Daily Weather History Graph

Daily Weather History Graph

Search for Another Location

Airport or City:

Trip Planner

Search our weather history database for the weather conditions in past years. The results will help you decide how hot, cold, wet, or windy it might be!

Date:

Astronomy

Jan. 07, 2014 Rise Set
Actual Time 7:16 AM EST 4:01 PM EST
Civil Twilight 6:41 AM EST 4:35 PM EST
Nautical Twilight 6:03 AM EST 5:14 PM EST
Astronomical Twilight 5:26 AM EST 5:50 PM EST
Moon 10:35 AM EST (1/7) No Moon Set
Length of Visible Light 9h 54m
Length of Day
8h 45m
Waxing Crescent, 45% of the Moon is Illuminated
Jan 7
Waxing Crescent
Jan 7
First Quarter
Jan 15
Full
Jan 24
Last Quarter
Jan 30
New

Hourly Weather History & Observations

Time (EST) Temp. Windchill Dew Point Humidity Pressure Visibility Wind Dir Wind Speed Gust Speed Precip Events Conditions
12:15 AM 24.8 °F 13.4 °F 15.8 °F 69% 29.18 in 10.0 mi WNW 12.7 mph 24.2 mph N/A   Overcast
12:35 AM 24.8 °F 10.0 °F 12.2 °F 59% 29.18 in 10.0 mi West 21.9 mph 29.9 mph N/A   Overcast
12:55 AM 23.0 °F 8.3 °F 12.2 °F 63% 29.18 in 10.0 mi West 19.6 mph 27.6 mph N/A   Overcast
1:15 AM 21.2 °F 6.8 °F 10.4 °F 63% 29.19 in 10.0 mi West 17.3 mph 28.8 mph N/A   Overcast
1:35 AM 21.2 °F 5.6 °F 10.4 °F 63% 29.19 in 10.0 mi West 20.7 mph 26.5 mph N/A   Overcast
1:55 AM 21.2 °F 9.5 °F 8.6 °F 58% 29.20 in 10.0 mi WSW 11.5 mph 21.9 mph N/A   Overcast
2:15 AM 19.4 °F 6.0 °F 10.4 °F 68% 29.21 in 10.0 mi West 13.8 mph 20.7 mph N/A   Overcast
2:35 AM 19.4 °F 5.5 °F 10.4 °F 68% 29.22 in 10.0 mi West 15.0 mph 21.9 mph N/A   Overcast
2:55 AM 19.4 °F 5.0 °F 6.8 °F 58% 29.23 in 10.0 mi WSW 16.1 mph 24.2 mph N/A   Overcast
3:15 AM 17.6 °F 1.3 °F 6.8 °F 63% 29.23 in 10.0 mi WSW 19.6 mph 28.8 mph N/A   Overcast
3:35 AM 17.6 °F 1.7 °F 5.0 °F 58% 29.24 in 10.0 mi West 18.4 mph 28.8 mph N/A   Mostly Cloudy
3:55 AM 15.8 °F -0.6 °F 5.0 °F 62% 29.25 in 10.0 mi West 18.4 mph 21.9 mph N/A   Partly Cloudy
4:15 AM 15.8 °F 2.1 °F 5.0 °F 62% 29.26 in 10.0 mi WSW 12.7 mph 21.9 mph N/A   Clear
4:35 AM 15.8 °F -2.3 °F 1.4 °F 53% 29.27 in 10.0 mi West 23.0 mph 26.5 mph N/A   Clear
4:55 AM 14.0 °F -3.0 °F 1.4 °F 57% 29.27 in 10.0 mi West 18.4 mph 23.0 mph N/A   Clear
5:15 AM 14.0 °F -3.4 °F 1.4 °F 57% 29.29 in 10.0 mi West 19.6 mph 27.6 mph N/A   Clear
5:35 AM 12.2 °F -7.5 °F -0.4 °F 57% 29.30 in 10.0 mi West 24.2 mph 29.9 mph N/A   Clear
5:55 AM 12.2 °F -0.2 °F -0.4 °F 57% 29.32 in 10.0 mi West 9.2 mph - N/A   Clear
6:15 AM 12.2 °F -5.3 °F -0.4 °F 57% 29.33 in 10.0 mi West 18.4 mph 27.6 mph N/A   Clear
6:35 AM 12.2 °F -3.7 °F -0.4 °F 57% 29.34 in 10.0 mi West 15.0 mph 24.2 mph N/A   Mostly Cloudy
6:55 AM 10.4 °F -7.2 °F -0.4 °F 62% 29.35 in 10.0 mi West 17.3 mph 23.0 mph N/A   Mostly Cloudy
7:15 AM 10.4 °F -6.6 °F -2.2 °F 57% 29.36 in 10.0 mi West 16.1 mph 25.3 mph N/A   Scattered Clouds
7:35 AM 8.6 °F -7.7 °F -2.2 °F 62% 29.38 in 10.0 mi West 13.8 mph - N/A   Clear
7:55 AM 8.6 °F -8.9 °F -2.2 °F 62% 29.38 in 10.0 mi West 16.1 mph 19.6 mph N/A   Clear
8:15 AM 10.4 °F -5.4 °F -0.4 °F 62% 29.38 in 10.0 mi West 13.8 mph 17.3 mph N/A   Mostly Cloudy
8:35 AM 10.4 °F -4.8 °F -0.4 °F 62% 29.38 in 10.0 mi West 12.7 mph 23.0 mph N/A   Scattered Clouds
8:55 AM 8.6 °F -9.5 °F -2.2 °F 62% 29.39 in 10.0 mi WSW 17.3 mph 31.1 mph N/A   Partly Cloudy
9:15 AM 10.4 °F -4.1 °F -4.0 °F 52% 29.41 in 10.0 mi West 11.5 mph 24.2 mph N/A   Scattered Clouds
9:35 AM 10.4 °F -6.6 °F -4.0 °F 52% 29.42 in 10.0 mi West 16.1 mph 25.3 mph N/A   Mostly Cloudy
9:55 AM 10.4 °F -2.4 °F -4.0 °F 52% 29.43 in 10.0 mi West 9.2 mph - N/A   Mostly Cloudy
10:15 AM 10.4 °F -5.4 °F -2.2 °F 57% 29.43 in 10.0 mi West 13.8 mph 19.6 mph N/A   Overcast
10:35 AM 8.6 °F -4.7 °F -0.4 °F 67% 29.42 in 3.0 mi West 9.2 mph 16.1 mph N/A   Overcast
10:55 AM 8.6 °F -8.3 °F -0.4 °F 67% 29.42 in 8.0 mi West 15.0 mph 20.7 mph N/A   Overcast
11:15 AM 8.6 °F -8.9 °F -4.0 °F 57% 29.42 in 10.0 mi West 16.1 mph 21.9 mph N/A   Mostly Cloudy
11:35 AM 8.6 °F -9.5 °F -2.2 °F 62% 29.42 in 10.0 mi West 17.3 mph 24.2 mph N/A   Overcast
11:55 AM 8.6 °F -7.7 °F -2.2 °F 62% 29.42 in 5.0 mi West 13.8 mph 25.3 mph N/A   Mostly Cloudy
12:15 PM 6.8 °F -10.7 °F -2.2 °F 67% 29.42 in 5.0 mi West 15.0 mph 21.9 mph N/A   Mostly Cloudy
12:35 PM 6.8 °F -12.9 °F -7.6 °F 52% 29.43 in 10.0 mi WSW 19.6 mph 27.6 mph N/A   Scattered Clouds
12:55 PM 8.6 °F -12.7 °F -9.4 °F 44% 29.44 in 10.0 mi West 25.3 mph 34.5 mph N/A   Mostly Cloudy
1:15 PM 6.8 °F -10.7 °F -11.2 °F 44% 29.46 in 10.0 mi WSW 15.0 mph 32.2 mph N/A   Overcast
1:35 PM 6.8 °F -13.8 °F -9.4 °F 48% 29.47 in 10.0 mi West 21.9 mph 31.1 mph N/A   Overcast
1:55 PM 6.8 °F -13.4 °F -9.4 °F 48% 29.49 in 10.0 mi West 20.7 mph 29.9 mph N/A   Overcast
2:15 PM 5.0 °F -17.1 °F -7.6 °F 56% 29.50 in 10.0 mi West 24.2 mph 28.8 mph N/A   Overcast
2:35 PM 5.0 °F -13.0 °F -11.2 °F 47% 29.51 in 10.0 mi West 15.0 mph 34.5 mph N/A   Overcast
2:55 PM 5.0 °F -14.2 °F -13.0 °F 43% 29.52 in 10.0 mi West 17.3 mph 28.8 mph N/A   Overcast
3:15 PM 3.2 °F -18.1 °F -11.2 °F 51% 29.53 in 10.0 mi West 20.7 mph 33.4 mph N/A   Overcast
3:35 PM 3.2 °F -17.1 °F -11.2 °F 51% 29.54 in 10.0 mi West 18.4 mph 32.2 mph N/A   Mostly Cloudy
3:55 PM 3.2 °F -16.5 °F -11.2 °F 51% 29.55 in 10.0 mi WSW 17.3 mph 28.8 mph N/A   Scattered Clouds
4:15 PM 3.2 °F -13.1 °F -11.2 °F 51% 29.57 in 10.0 mi West 11.5 mph 21.9 mph N/A   Partly Cloudy
4:35 PM 3.2 °F -15.9 °F -11.2 °F 51% 29.58 in 10.0 mi West 16.1 mph 24.2 mph N/A   Mostly Cloudy
4:55 PM 3.2 °F -17.1 °F -11.2 °F 51% 29.58 in 10.0 mi WSW 18.4 mph 25.3 mph N/A   Overcast
5:15 PM 3.2 °F -18.1 °F -9.4 °F 56% 29.60 in 10.0 mi West 20.7 mph 29.9 mph N/A   Overcast
5:35 PM 3.2 °F -15.9 °F -9.4 °F 56% 29.60 in 10.0 mi West 16.1 mph 24.2 mph N/A   Scattered Clouds
5:55 PM 3.2 °F -14.6 °F -9.4 °F 56% 29.61 in 10.0 mi West 13.8 mph 24.2 mph N/A   Clear
6:15 PM 3.2 °F -13.9 °F -9.4 °F 56% 29.62 in 10.0 mi WSW 12.7 mph 18.4 mph N/A   Mostly Cloudy
6:35 PM 3.2 °F -10.3 °F -9.4 °F 56% 29.63 in 10.0 mi WSW 8.1 mph 17.3 mph N/A   Scattered Clouds
6:55 PM 3.2 °F -11.3 °F -9.4 °F 56% 29.64 in 10.0 mi WSW 9.2 mph 17.3 mph N/A   Clear
7:15 PM 3.2 °F -13.1 °F -7.6 °F 61% 29.64 in 10.0 mi WSW 11.5 mph 16.1 mph N/A   Scattered Clouds
7:35 PM 3.2 °F -10.3 °F -9.4 °F 56% 29.65 in 10.0 mi SW 8.1 mph 16.1 mph N/A   Mostly Cloudy
7:55 PM 5.0 °F -12.3 °F -9.4 °F 52% 29.66 in 10.0 mi WSW 13.8 mph 21.9 mph N/A   Scattered Clouds
8:15 PM 5.0 °F -13.6 °F -11.2 °F 47% 29.67 in 10.0 mi WSW 16.1 mph 23.0 mph N/A   Mostly Cloudy
8:35 PM 3.2 °F -16.5 °F -11.2 °F 51% 29.68 in 10.0 mi WSW 17.3 mph 24.2 mph N/A   Scattered Clouds
8:55 PM 3.2 °F -13.1 °F -11.2 °F 51% 29.68 in 10.0 mi WSW 11.5 mph 24.2 mph N/A   Partly Cloudy
9:15 PM 3.2 °F -13.9 °F -11.2 °F 51% 29.69 in 10.0 mi WSW 12.7 mph 21.9 mph N/A   Clear
9:35 PM 3.2 °F -16.5 °F -11.2 °F 51% 29.69 in 10.0 mi WSW 17.3 mph 23.0 mph N/A   Clear
9:55 PM 3.2 °F -12.2 °F -11.2 °F 51% 29.70 in 10.0 mi WSW 10.4 mph 21.9 mph N/A   Scattered Clouds
10:15 PM 3.2 °F -12.2 °F -11.2 °F 51% 29.71 in 10.0 mi WSW 10.4 mph 17.3 mph N/A   Overcast
10:35 PM 3.2 °F -13.9 °F -11.2 °F 51% 29.71 in 10.0 mi WSW 12.7 mph 24.2 mph N/A   Overcast
10:55 PM 3.2 °F -12.2 °F -9.4 °F 56% 29.72 in 10.0 mi WSW 10.4 mph 21.9 mph N/A   Overcast
11:15 PM 3.2 °F -14.6 °F -9.4 °F 56% 29.72 in 10.0 mi WSW 13.8 mph 20.7 mph N/A   Overcast
11:35 PM 5.0 °F -11.6 °F -9.4 °F 52% 29.72 in 10.0 mi WSW 12.7 mph 24.2 mph N/A   Overcast
11:55 PM 3.2 °F -16.5 °F -9.4 °F 56% 29.73 in 10.0 mi WSW 17.3 mph 24.2 mph N/A   Mostly Cloudy